Regional Weather Roundup
Issued by NWS

Home | Current Version | Previous Version | Graphics & Text | Print | Product List | Glossary Off
Versions: 1 2 3 4 5 6 7 8 9 10 11 12 13 14 15 16 17 18 19 20 21 22 23 24 25 26 27 28 29 30 31 32 33 34 35 36 37 38 39 40 41 42 43 44 45 46 47 48 49 50

340
ASUS43 KMPX 260910
RWRMN
WEATHER ROUNDUP FOR MINNESOTA
NATIONAL WEATHER SERVICE TWIN CITIES/CHANHASSEN MN
400 AM CDT TUE SEP 26 2017


NOTE: "FAIR" INDICATES FEW OR NO CLOUDS BELOW 12,000 FEET WITH NO
SIGNIFICANT WEATHER AND/OR OBSTRUCTIONS TO VISIBILITY. N/A MEANS
CURRENT SKY AND/OR WEATHER CONDITIONS ARE NOT AVAILABLE.

MNZ060>063-068>070-261000-
   Twin Cities Metro

CITY           SKY/WX    TMP DP  RH WIND       PRES   REMARKS
TWIN CITIES    LGT RAIN  58  58 100 NW6       29.91F
ST PAUL        LGT RAIN  58  58 100 NW6       29.92F
CRYSTAL        LGT RAIN  57  54  89 CALM      29.91F
BLAINE         LGT RAIN  57  57 100 CALM      29.92S
LAKEVILLE      RAIN      57  57 100 CALM      29.91F
EDEN PRAIRIE   LGT RAIN  58  57  97 N5        29.90F
SOUTH ST PAUL  LGT RAIN  59  58  97 CALM      29.91F
LAKE ELMO      DRIZZLE   59  57  94 CALM      29.92F
$$
MNZ001>005-007-008-013>017-022>024-027-028-261000-
   Northwest Minnesota

CITY           SKY/WX    TMP DP  RH WIND       PRES   REMARKS
BEMIDJI        RAIN      49  49  98 CALM      30.02S
HALLOCK        LGT RAIN  50  48  93 N5        30.09F
ROSEAU           N/A     50  45  81 N3        30.08S HAZE
WARROAD        DRIZZLE   52  48  87 NE8       30.07F
THIEF RVR FALL LGT RAIN  49  48  97 N8        30.07F
CROOKSTON      LGT RAIN  50  48  93 N8        30.07F
FOSSTON        RAIN      48  46  93 NW6       30.05S
DETROIT LAKES  RAIN      50  50 100 N8        30.03F
MOORHEAD       LGT RAIN  50  48  93 N7        30.05F
PARK RAPIDS    LGT RAIN  52  49  89 N7        30.00F
MAHNOMEN       DRIZZLE   49  48  97 N6        30.04S
$$
MNZ006-009>011-018-025>026-261000-
   North Central Minnesota

CITY           SKY/WX    TMP DP  RH WIND       PRES   REMARKS
BAUDETTE       CLOUDY    50  48  93 NE9       30.06S
FLAG ISLAND    CLOUDY    52  46  82 NE7       30.07F
INTL FALLS     CLOUDY    52  47  83 NE7       30.03F
WASKISH        LGT RAIN  48  48 100 NE5       30.03F
BIG FORK       LGT RAIN  52  50  93 CALM      30.01S
LONGVILLE      DRIZZLE   52  52 100 CALM      29.98S
GRAND RAPIDS   LGT RAIN  52  51  97 N6        29.99S FOG
CRANE LAKE     DRIZZLE   50  48  93 NE5       30.03S
ORR            DRIZZLE   50  46  87 CALM      29.97F
WALKER         RAIN      50  49  97 CALM      30.00S
$$
MNZ012-019>021-037-261000-
   Northeast Minnesota

CITY           SKY/WX    TMP DP  RH WIND       PRES   REMARKS
DULUTH         RAIN      53  53 100 E13       29.94F FOG
ELY            LGT RAIN  52  50  93 NE5       29.99F
HIBBING        LGT RAIN  51  51 100 NE7       29.97S
EVELETH        LGT RAIN  53  51  95 NE7       29.97F
GRAND MARAIS     N/A     54  52  93 N8        29.97F
$$
MNZ029>031-032-039>041-046>048-054>057-064-261000-
   West Central Minnesota

CITY           SKY/WX    TMP DP  RH WIND       PRES   REMARKS
FERGUS FALLS   LGT RAIN  50  50 100 N7        30.02F
WHEATON        CLOUDY    50  48  93 N8        30.03F FOG
ALEXANDRIA     LGT RAIN  53  52  96 N9        29.99F FOG
ELBOW LAKE     DRIZZLE   51  51 100 NW9       30.01F
WADENA         RAIN      50  50 100 NW3       30.00S
GLENWOOD       DRIZZLE   52  52 100 N8        29.99S
APPLETON       DRIZZLE   54  50  87 NW8       29.99S
BENSON         DRIZZLE   54  52  94 N7        30.00S
ORTONVILLE     LGT RAIN  50  48  93 N9        30.01S
MADISON        CLOUDY    54  54 100 N10       30.00F FOG
WILLMAR        RAIN      55  55 100 NW7       29.99S
$$
MNZ033>034-036-042>043-049>051-058-059-261000-
   Central Minnesota

CITY           SKY/WX    TMP DP  RH WIND       PRES   REMARKS
ST CLOUD       LGT RAIN  55  55 100 NW5       29.94S FOG
SAUK CENTRE    RAIN      52  52  98 NW9       29.97F
PAYNESVILLE    HVY RAIN  54  54 100 NW3       29.97S
AITKIN         DRIZZLE   52  50  93 N5        29.94F
PINE RIVER     RAIN      50  48  93 N6        30.01F
BRAINERD       LGT RAIN  53  52  96 N8        29.96F FOG
STAPLES        DRIZZLE   52  52 100 N7        29.98F
LITTLE FALLS   RAIN      52  50  93 N6        29.96S
LITCHFIELD     LGT RAIN  55  55 100 NW5       29.96R
BUFFALO        DRIZZLE   56  54  93 CALM      29.94F
MAPLE LAKE     RAIN      56  56  98 CALM      29.94F
HUTCHINSON     LGT RAIN  56  56  99 W5        29.96S
$$
MNZ037-044-045-052-053-261000-
   East Central Minnesota

CITY           SKY/WX    TMP DP  RH WIND       PRES   REMARKS
PRINCETON      DRIZZLE   57  55  94 NW3       29.93F
MORA           DRIZZLE   54  52  94 N3        29.94F
RUSH CITY      LGT RAIN  56  55  96 CALM      29.92S
MOOSE LAKE     RAIN      54  54 100 CALM      29.90F
HINCKLEY       RAIN      55  55 100 CALM      29.92S
CLOQUET        LGT RAIN  55  52  88 E9G20     29.94S
MCGREGOR       CLOUDY    54  52  94 N7        29.94F
$$
MNZ071>073-080-081-089-090-097-098-261000-
   Southwest Minnesota

CITY           SKY/WX    TMP DP  RH WIND       PRES   REMARKS
MONTEVIDEO     DRIZZLE   54  52  94 N9        29.99S
GRANITE FALLS  DRIZZLE   54  54  98 NW6       30.01R
CANBY          DRIZZLE   51  50  97 W7        30.02S
MARSHALL       LGT RAIN  51  50  96 NW10      29.99
REDWOOD FALLS  LGT RAIN  55  53  93 NW10      29.97R FOG
OLIVIA         LGT RAIN  54  52  94 NW8       29.96S
PIPESTONE      LGT RAIN  52  48  87 N6        30.00F
WORTHINGTON    LGT RAIN  51  50  96 NW12      30.00R FOG
JACKSON        DRIZZLE   54  54 100 NW9       29.97S
TRACY          DRIZZLE   52  52 100 NW10      29.99S
SLAYTON        LGT RAIN  51  44  77 NW9       30.00S
$$
MNZ065>067-074>077-082>085-091>093-261000-
   South Central Minnesota

CITY           SKY/WX    TMP DP  RH WIND       PRES   REMARKS
MANKATO        LGT RAIN  57  56  96 CALM      29.93F
NEW ULM        LGT RAIN  55  54  94 NW7       29.94F
ST JAMES       DRIZZLE   55  55 100 NW6       29.96S
FAIRMONT       LGT RAIN  57  56  96 N6        29.94F
FARIBAULT      DRIZZLE   57  57 100 CALM      29.93S
OWATONNA       RAIN      61  57  88 CALM      29.93S
WASECA         LGT RAIN  55  55 100 CALM      29.94S
ALBERT LEA     LGT RAIN  64  63  94 CALM      29.92F
$$
MNZ078>079-086>088-094>096-261000-
   Southeast Minnesota

CITY           SKY/WX    TMP DP  RH WIND       PRES   REMARKS
ROCHESTER      LGT RAIN  62  62 100 CALM      29.94R VSB 1/4
RED WING       DRIZZLE   61  59  94 CALM      29.90S
STANTON        CLOUDY    60  58  92 CALM      29.91S
DODGE CENTER   FOG       61  59  94 CALM      29.93S VSB 1/2
WINONA         CLOUDY    66  64  94 CALM      29.92R
AUSTIN         CLOUDY    63  63 100 CALM      29.92S FOG
PRESTON        CLOUDY    63  61  95 W3        29.93F FOG
$$
ABBREVIATIONS USED IN REMARKS
   TC - TEMPERATURES IN CELSIUS
  WCI - WIND CHILL INDEX
   HX - HEAT INDEX
  VSB - VISIBILITY
$$




USA.gov is the U.S. government's official web portal to all federal, state and local government web resources and services.